SWR7VE LSZH-EKCH

Flight info

Callsign SWR7VE
Flight time 1h 20m
Altitude 34000
Route DEGES Z1 ETAGO DCT HAREM/N0436F330 DCT LOHRE DCT BERXO DCT MAKEL N851 GESKA Z711 MONAK
Aircraft A21N/M-SDE2E3FGHIRWXY/LB1

Departure

Time 2026-05-05 11:33
Airport Zürich Airport (LSZH)

Arrival

Time 2026-05-05 12:54
Airport Copenhagen Kastrup Airport (EKCH)
Time Latitude Longitude Altitude Speed Heading
2026-05-05 10:49 47.45350 8.55701 1415 ft 0 kts
2026-05-05 11:20 47.45330 8.55698 1413 ft 4 kts
2026-05-05 11:20 47.45304 8.55695 1416 ft 4 kts 357°
2026-05-05 11:20 47.45279 8.55704 1415 ft 4 kts 326°
2026-05-05 11:20 47.45265 8.55730 1412 ft 3 kts 278°
2026-05-05 11:21 47.45264 8.55735 1412 ft 1 kts 276°
2026-05-05 11:28 47.45265 8.55730 1412 ft 5 kts 276°
2026-05-05 11:28 47.45269 8.55666 1412 ft 5 kts 276°
2026-05-05 11:28 47.45274 8.55609 1415 ft 6 kts 277°
2026-05-05 11:29 47.45307 8.55557 1418 ft 8 kts 334°
2026-05-05 11:29 47.45367 8.55516 1412 ft 11 kts 335°
2026-05-05 11:29 47.45438 8.55466 1409 ft 12 kts 335°
2026-05-05 11:29 47.45516 8.55412 1408 ft 13 kts 335°
2026-05-05 11:30 47.45600 8.55354 1408 ft 14 kts 335°
2026-05-05 11:30 47.45670 8.55399 1406 ft 15 kts 90°
2026-05-05 11:30 47.45659 8.55563 1411 ft 17 kts 96°
2026-05-05 11:30 47.45647 8.55743 1416 ft 18 kts 96°
2026-05-05 11:31 47.45633 8.55937 1418 ft 20 kts 96°
2026-05-05 11:31 47.45618 8.56143 1422 ft 21 kts 96°
2026-05-05 11:31 47.45602 8.56361 1424 ft 22 kts 96°
2026-05-05 11:31 47.45586 8.56591 1422 ft 23 kts 96°
2026-05-05 11:32 47.45570 8.56815 1425 ft 17 kts 96°
2026-05-05 11:32 47.45564 8.56962 1426 ft 8 kts 78°
2026-05-05 11:32 47.45618 8.57022 1430 ft 13 kts
2026-05-05 11:32 47.45675 8.56854 1427 ft 43 kts 275°
2026-05-05 11:33 47.45732 8.56016 1420 ft 117 kts 275°
2026-05-05 11:33 47.45833 8.54570 1437 ft 157 kts 276°
2026-05-05 11:33 47.45956 8.52966 1971 ft 157 kts 274°
2026-05-05 11:33 47.46048 8.51347 2546 ft 162 kts 275°
2026-05-05 11:34 47.46171 8.49606 2933 ft 177 kts 276°
2026-05-05 11:34 47.46293 8.47718 3410 ft 191 kts 272°
2026-05-05 11:34 47.45902 8.45802 3835 ft 207 kts 233°
2026-05-05 11:34 47.44755 8.44489 4434 ft 216 kts 212°
2026-05-05 11:35 47.43633 8.43030 5091 ft 216 kts 242°
2026-05-05 11:35 47.43111 8.40946 5778 ft 219 kts 255°
2026-05-05 11:35 47.42743 8.38748 6478 ft 222 kts 253°
2026-05-05 11:35 47.42133 8.36671 7100 ft 222 kts 230°
2026-05-05 11:36 47.40953 8.35239 7716 ft 223 kts 204°
2026-05-05 11:36 47.39432 8.34749 8305 ft 230 kts 183°
2026-05-05 11:36 47.37789 8.35102 8581 ft 253 kts 159°
2026-05-05 11:36 47.36325 8.36712 8910 ft 277 kts 129°
2026-05-05 11:37 47.35591 8.39381 9519 ft 290 kts 98°
2026-05-05 11:37 47.35690 8.42401 10117 ft 302 kts 85°
2026-05-05 11:37 47.35999 8.45577 10435 ft 322 kts 84°
2026-05-05 11:37 47.36313 8.48938 10696 ft 340 kts 85°
2026-05-05 11:38 47.36608 8.52489 10992 ft 356 kts 85°
2026-05-05 11:38 47.36887 8.56157 11558 ft 363 kts 85°
2026-05-05 11:38 47.37158 8.59886 12205 ft 368 kts 85°
2026-05-05 11:38 47.37424 8.63619 12854 ft 372 kts 86°
2026-05-05 11:39 47.37694 8.67439 13505 ft 377 kts 85°
2026-05-05 11:39 47.37966 8.71319 14112 ft 382 kts 85°
2026-05-05 11:39 47.38239 8.75242 14710 ft 385 kts 86°
2026-05-05 11:39 47.38511 8.79200 15371 ft 387 kts 86°
2026-05-05 11:40 47.38781 8.83166 16014 ft 390 kts 86°
2026-05-05 11:40 47.39053 8.87162 16630 ft 393 kts 86°
2026-05-05 11:40 47.39324 8.91192 17240 ft 396 kts 86°
2026-05-05 11:40 47.39595 8.95255 17843 ft 399 kts 87°
2026-05-05 11:41 47.39868 8.99362 18394 ft 402 kts 87°
2026-05-05 11:41 47.40141 9.03483 18943 ft 406 kts 87°
2026-05-05 11:41 47.40418 9.07656 19492 ft 409 kts 87°
2026-05-05 11:41 47.40688 9.11788 19999 ft 410 kts 87°
2026-05-05 11:42 47.40963 9.15993 20447 ft 412 kts 87°
2026-05-05 11:42 47.41478 9.20173 20822 ft 418 kts 75°
2026-05-05 11:42 47.42642 9.24014 21249 ft 424 kts 63°
2026-05-05 11:42 47.44201 9.28006 21798 ft 427 kts 62°
2026-05-05 11:43 47.45711 9.31801 22296 ft 429 kts 62°
2026-05-05 11:43 47.47257 9.35595 22771 ft 433 kts 58°
2026-05-05 11:43 47.49227 9.38992 23221 ft 440 kts 44°
2026-05-05 11:43 47.51757 9.41592 23626 ft 446 kts 28°
2026-05-05 11:44 47.54662 9.43274 23983 ft 450 kts 19°
2026-05-05 11:44 47.57663 9.44647 24313 ft 453 kts 15°
2026-05-05 11:44 47.60785 9.45332 24653 ft 456 kts
2026-05-05 11:44 47.63971 9.45498 25024 ft 458 kts
2026-05-05 11:45 47.67119 9.45622 25398 ft 460 kts
2026-05-05 11:45 47.70330 9.45763 25752 ft 462 kts
2026-05-05 11:45 47.73566 9.45925 26100 ft 465 kts
2026-05-05 11:45 47.76816 9.46095 26438 ft 469 kts
2026-05-05 11:46 47.80086 9.46250 26800 ft 472 kts
2026-05-05 11:46 47.83382 9.46268 27160 ft 475 kts
2026-05-05 11:46 47.86700 9.46262 27477 ft 478 kts 360°
2026-05-05 11:46 47.90039 9.46256 27797 ft 481 kts 360°
2026-05-05 11:47 47.93395 9.46247 28106 ft 483 kts 360°
2026-05-05 11:47 47.96781 9.46239 28425 ft 486 kts 360°
2026-05-05 11:47 48.00123 9.46229 28715 ft 489 kts 360°
2026-05-05 11:47 48.03537 9.46220 29001 ft 491 kts 360°
2026-05-05 11:48 48.10384 9.46206 29752 ft 491 kts 360°
2026-05-05 11:48 48.13813 9.46201 30095 ft 491 kts 359°
2026-05-05 11:48 48.17233 9.46188 30415 ft 490 kts 359°
2026-05-05 11:49 48.20642 9.46188 30740 ft 489 kts 359°
2026-05-05 11:49 48.24042 9.46189 31029 ft 489 kts 359°
2026-05-05 11:49 48.27444 9.46195 31373 ft 488 kts 360°
2026-05-05 11:49 48.30850 9.46202 31655 ft 488 kts 360°
2026-05-05 11:50 48.34235 9.46200 31941 ft 487 kts 359°
2026-05-05 11:50 48.37628 9.46196 32236 ft 487 kts 359°
2026-05-05 11:50 48.41008 9.46200 32502 ft 486 kts 359°
2026-05-05 11:50 48.44351 9.46203 32759 ft 486 kts 359°
2026-05-05 11:51 48.47736 9.46201 33024 ft 485 kts 359°
2026-05-05 11:51 48.51108 9.46201 33272 ft 485 kts 359°
2026-05-05 11:51 48.54486 9.46198 33501 ft 484 kts 359°
2026-05-05 11:51 48.57861 9.46164 33719 ft 484 kts 359°
2026-05-05 11:52 48.61232 9.46124 33862 ft 483 kts 359°
2026-05-05 11:52 48.64594 9.46086 33866 ft 482 kts 359°
2026-05-05 11:52 48.71312 9.46011 34012 ft 484 kts 359°
2026-05-05 11:53 48.74639 9.45900 34234 ft 483 kts 357°
2026-05-05 11:53 48.78003 9.45734 34469 ft 483 kts 357°
2026-05-05 11:53 48.80267 9.45619 34601 ft 482 kts 357°
2026-05-05 11:53 48.84707 9.45394 34819 ft 482 kts 357°
2026-05-05 11:54 48.86976 9.45279 34925 ft 482 kts 357°
2026-05-05 11:54 48.90288 9.45111 35089 ft 481 kts 357°
2026-05-05 11:54 48.93636 9.44939 35239 ft 481 kts 356°
2026-05-05 11:54 48.96986 9.44768 35326 ft 483 kts 356°
2026-05-05 11:55 49.00345 9.44597 35439 ft 484 kts 356°
2026-05-05 11:55 49.03712 9.44426 35588 ft 485 kts 356°
2026-05-05 11:55 49.07090 9.44253 35769 ft 484 kts 356°
2026-05-05 11:55 49.10449 9.44083 35860 ft 483 kts 356°
2026-05-05 11:56 49.17159 9.43741 35842 ft 482 kts 356°
2026-05-05 11:56 49.23869 9.43397 35835 ft 482 kts 356°
2026-05-05 11:57 49.30525 9.43057 35830 ft 482 kts 356°
2026-05-05 11:57 49.37231 9.42714 35839 ft 481 kts 355°
2026-05-05 11:58 49.43927 9.42371 35835 ft 479 kts 355°
2026-05-05 11:58 49.50602 9.42020 35843 ft 481 kts 355°
2026-05-05 11:59 49.57291 9.41674 35838 ft 481 kts 355°
2026-05-05 11:59 49.63940 9.41750 35836 ft 482 kts
2026-05-05 12:00 49.70616 9.42805 35839 ft 482 kts
2026-05-05 12:00 49.77289 9.43886 35835 ft 482 kts
2026-05-05 12:01 49.83972 9.44966 35839 ft 482 kts
2026-05-05 12:01 49.90645 9.46039 35839 ft 481 kts
2026-05-05 12:02 49.97315 9.47110 35836 ft 481 kts
2026-05-05 12:02 50.03938 9.48175 35841 ft 481 kts
2026-05-05 12:03 50.10552 9.49921 35838 ft 483 kts 10°
2026-05-05 12:03 50.17106 9.52185 35834 ft 483 kts 10°
2026-05-05 12:04 50.23681 9.54404 35837 ft 483 kts 10°
2026-05-05 12:04 50.30250 9.56603 35844 ft 482 kts
2026-05-05 12:05 50.36830 9.58814 35834 ft 482 kts 10°
2026-05-05 12:05 50.43354 9.61027 35833 ft 482 kts 10°
2026-05-05 12:06 50.49937 9.63210 35846 ft 482 kts
2026-05-05 12:06 50.56504 9.65412 35837 ft 482 kts
2026-05-05 12:07 50.63068 9.67651 35834 ft 482 kts
2026-05-05 12:07 50.69622 9.69922 35830 ft 482 kts
2026-05-05 12:08 50.76139 9.72206 35836 ft 482 kts
2026-05-05 12:08 50.82706 9.74431 35832 ft 482 kts
2026-05-05 12:09 50.89274 9.76686 35826 ft 482 kts
2026-05-05 12:09 50.95798 9.78939 35840 ft 482 kts
2026-05-05 12:10 51.02350 9.81232 35836 ft 482 kts
2026-05-05 12:10 51.08911 9.83508 35837 ft 482 kts
2026-05-05 12:11 51.15474 9.85778 35838 ft 482 kts
2026-05-05 12:11 51.22027 9.88080 35840 ft 481 kts 11°
2026-05-05 12:12 51.28370 9.91409 35844 ft 483 kts 16°
2026-05-05 12:12 51.34718 9.94939 35845 ft 483 kts 16°
2026-05-05 12:13 51.41076 9.98464 35852 ft 482 kts 16°
2026-05-05 12:13 51.47413 10.02003 35843 ft 481 kts 16°
2026-05-05 12:14 51.53752 10.05519 35846 ft 481 kts 16°
2026-05-05 12:14 51.60036 10.09039 35853 ft 481 kts 16°
2026-05-05 12:15 51.66354 10.12581 35860 ft 480 kts 15°
2026-05-05 12:15 51.72659 10.16149 35857 ft 480 kts 16°
2026-05-05 12:16 51.78972 10.19753 35859 ft 480 kts 15°
2026-05-05 12:16 51.85293 10.23266 35878 ft 480 kts 15°
2026-05-05 12:17 51.91547 10.26799 35864 ft 478 kts 15°
2026-05-05 12:17 51.97813 10.30363 35871 ft 477 kts 15°
2026-05-05 12:18 52.04091 10.33942 35860 ft 478 kts 15°
2026-05-05 12:18 52.10370 10.37547 35880 ft 477 kts 15°
2026-05-05 12:19 52.16646 10.41146 35884 ft 478 kts 15°
2026-05-05 12:19 52.22875 10.44727 35870 ft 477 kts 15°
2026-05-05 12:20 52.29144 10.48344 35874 ft 477 kts 15°
2026-05-05 12:20 52.35398 10.51972 35877 ft 475 kts 15°
2026-05-05 12:21 52.41623 10.55586 35878 ft 474 kts 15°
2026-05-05 12:21 52.47852 10.59218 35891 ft 476 kts 15°
2026-05-05 12:22 52.54107 10.62870 35906 ft 477 kts 15°
2026-05-05 12:22 52.60301 10.66497 35880 ft 473 kts 15°
2026-05-05 12:23 52.66492 10.70138 35895 ft 472 kts 15°
2026-05-05 12:23 52.72690 10.73795 35889 ft 472 kts 15°
2026-05-05 12:24 52.78885 10.77459 35910 ft 473 kts 15°
2026-05-05 12:24 52.85059 10.81126 35895 ft 474 kts 15°
2026-05-05 12:25 52.91277 10.84835 35904 ft 474 kts 15°
2026-05-05 12:25 52.97491 10.88548 35898 ft 474 kts 15°
2026-05-05 12:26 53.03710 10.92269 35901 ft 474 kts 15°
2026-05-05 12:26 53.09933 10.95993 35910 ft 474 kts 15°
2026-05-05 12:27 53.16143 10.99736 35909 ft 474 kts 15°
2026-05-05 12:27 53.22322 11.03475 35900 ft 474 kts 15°
2026-05-05 12:28 53.28542 11.07237 35913 ft 477 kts 15°
2026-05-05 12:28 53.34776 11.11040 35915 ft 477 kts 15°
2026-05-05 12:29 53.41014 11.14835 35911 ft 477 kts 15°
2026-05-05 12:29 53.47253 11.18661 35944 ft 477 kts 15°
2026-05-05 12:30 53.53475 11.22485 35931 ft 476 kts 15°
2026-05-05 12:30 53.59690 11.26312 35924 ft 475 kts 15°
2026-05-05 12:31 53.65909 11.30140 35921 ft 474 kts 15°
2026-05-05 12:31 53.69000 11.32054 35651 ft 471 kts 15°
2026-05-05 12:31 53.72049 11.33942 35384 ft 473 kts 15°
2026-05-05 12:32 53.75141 11.35861 35125 ft 472 kts 15°
2026-05-05 12:32 53.78229 11.37780 34878 ft 472 kts 15°
2026-05-05 12:32 53.81323 11.39706 34638 ft 472 kts 15°
2026-05-05 12:32 53.84417 11.41637 34399 ft 472 kts 15°
2026-05-05 12:33 53.87497 11.43570 34162 ft 473 kts 15°
2026-05-05 12:33 53.90585 11.45505 33918 ft 473 kts 15°
2026-05-05 12:33 53.93668 11.47450 33642 ft 473 kts 15°
2026-05-05 12:33 53.96754 11.49414 33397 ft 472 kts 16°
2026-05-05 12:34 53.99824 11.51362 33136 ft 471 kts 16°
2026-05-05 12:34 54.02901 11.53297 32870 ft 471 kts 16°
2026-05-05 12:34 54.05975 11.55222 32607 ft 472 kts 16°
2026-05-05 12:34 54.09066 11.57169 32338 ft 471 kts 16°
2026-05-05 12:35 54.12127 11.59093 31857 ft 467 kts 15°
2026-05-05 12:35 54.15162 11.61002 31263 ft 464 kts 15°
2026-05-05 12:35 54.18149 11.62910 30667 ft 462 kts 16°
2026-05-05 12:35 54.21183 11.64862 30096 ft 459 kts 17°
2026-05-05 12:36 54.24124 11.66748 29421 ft 456 kts 16°
2026-05-05 12:36 54.27090 11.68640 28774 ft 453 kts 16°
2026-05-05 12:36 54.30030 11.70523 28179 ft 448 kts 16°
2026-05-05 12:36 54.32955 11.72395 27600 ft 444 kts 16°
2026-05-05 12:37 54.34917 11.73637 27218 ft 441 kts 16°
2026-05-05 12:37 54.37766 11.75437 26651 ft 438 kts 16°
2026-05-05 12:37 54.40614 11.77256 26081 ft 435 kts 16°
2026-05-05 12:37 54.43446 11.79076 25561 ft 432 kts 16°
2026-05-05 12:38 54.46216 11.81026 25015 ft 430 kts 20°
2026-05-05 12:38 54.48936 11.83144 24452 ft 428 kts 21°
2026-05-05 12:38 54.51641 11.85274 23896 ft 426 kts 21°
2026-05-05 12:38 54.54330 11.87396 23312 ft 422 kts 21°
2026-05-05 12:39 54.56985 11.89491 22699 ft 417 kts 21°
2026-05-05 12:39 54.59603 11.91562 22136 ft 411 kts 20°
2026-05-05 12:39 54.62147 11.93751 21579 ft 410 kts 27°
2026-05-05 12:39 54.64540 11.96419 21041 ft 408 kts 31°
2026-05-05 12:40 54.66890 11.99154 20521 ft 406 kts 31°
2026-05-05 12:40 54.69213 12.01866 20030 ft 403 kts 31°
2026-05-05 12:40 54.71533 12.04558 19525 ft 400 kts 31°
2026-05-05 12:40 54.73835 12.07228 19058 ft 397 kts 31°
2026-05-05 12:41 54.76127 12.09890 18618 ft 395 kts 31°
2026-05-05 12:41 54.78414 12.12543 18147 ft 395 kts 31°
2026-05-05 12:41 54.80694 12.15195 17639 ft 394 kts 31°
2026-05-05 12:41 54.82940 12.17810 17169 ft 393 kts 31°
2026-05-05 12:42 54.85238 12.20491 16689 ft 392 kts 31°
2026-05-05 12:42 54.87498 12.23133 16225 ft 391 kts 31°
2026-05-05 12:42 54.89742 12.25746 15763 ft 384 kts 29°
2026-05-05 12:42 54.92069 12.27609 15453 ft 365 kts 11°
2026-05-05 12:43 54.94532 12.28323 15154 ft 355 kts
2026-05-05 12:43 54.96987 12.28689 14517 ft 351 kts 360°
2026-05-05 12:43 54.99411 12.29034 13883 ft 349 kts 360°
2026-05-05 12:43 55.01817 12.29386 13234 ft 343 kts
2026-05-05 12:44 55.04157 12.29723 12743 ft 331 kts
2026-05-05 12:44 55.06401 12.30056 12356 ft 317 kts
2026-05-05 12:44 55.08573 12.30391 11922 ft 310 kts
2026-05-05 12:44 55.10691 12.30733 11470 ft 303 kts
2026-05-05 12:45 55.12777 12.31074 10917 ft 299 kts
2026-05-05 12:45 55.14836 12.31415 10363 ft 296 kts
2026-05-05 12:45 55.16874 12.31756 9832 ft 293 kts
2026-05-05 12:45 55.18890 12.32093 9238 ft 289 kts
2026-05-05 12:46 55.20877 12.32428 8670 ft 285 kts
2026-05-05 12:46 55.22842 12.32756 8105 ft 281 kts
2026-05-05 12:46 55.24781 12.33077 7556 ft 278 kts
2026-05-05 12:46 55.26689 12.33398 7019 ft 274 kts
2026-05-05 12:47 55.28551 12.33710 6486 ft 270 kts
2026-05-05 12:47 55.30414 12.34025 5929 ft 267 kts
2026-05-05 12:47 55.32252 12.34331 5444 ft 263 kts
2026-05-05 12:47 55.34061 12.34639 4994 ft 259 kts
2026-05-05 12:48 55.35837 12.34943 4506 ft 255 kts
2026-05-05 12:48 55.37598 12.35247 4108 ft 253 kts
2026-05-05 12:48 55.39349 12.35546 3934 ft 253 kts
2026-05-05 12:48 55.41089 12.35843 3798 ft 248 kts
2026-05-05 12:49 55.42756 12.36206 3661 ft 236 kts 13°
2026-05-05 12:49 55.44205 12.37348 3575 ft 222 kts 31°
2026-05-05 12:49 55.45378 12.38956 3488 ft 207 kts 42°
2026-05-05 12:49 55.46431 12.40663 3329 ft 205 kts 39°
2026-05-05 12:50 55.47497 12.42314 3123 ft 203 kts 39°
2026-05-05 12:50 55.48548 12.43930 2866 ft 202 kts 39°
2026-05-05 12:50 55.49590 12.45532 2643 ft 190 kts 39°
2026-05-05 12:50 55.50555 12.47016 2393 ft 183 kts 38°
2026-05-05 12:51 55.51497 12.48464 2125 ft 177 kts 39°
2026-05-05 12:51 55.52424 12.49891 1869 ft 174 kts 39°
2026-05-05 12:51 55.53301 12.51242 1651 ft 163 kts 38°
2026-05-05 12:51 55.54131 12.52522 1418 ft 152 kts 38°
2026-05-05 12:52 55.54865 12.53654 1182 ft 133 kts 38°
2026-05-05 12:52 55.55563 12.54729 960 ft 134 kts 39°
2026-05-05 12:52 55.56262 12.55814 775 ft 133 kts 39°
2026-05-05 12:52 55.56961 12.56884 642 ft 132 kts 38°
2026-05-05 12:53 55.57653 12.57948 451 ft 131 kts 38°
2026-05-05 12:53 55.58341 12.59000 292 ft 131 kts 39°
2026-05-05 12:53 55.59024 12.60058 116 ft 130 kts 39°
2026-05-05 12:53 55.59694 12.61082 29 ft 122 kts 39°
2026-05-05 12:54 55.60466 12.62243 26 ft 46 kts 25°
2026-05-05 12:54 55.60711 12.62377 23 ft 30 kts 12°
2026-05-05 12:54 55.60864 12.62518 22 ft 24 kts 47°
2026-05-05 12:55 55.60993 12.62716 22 ft 25 kts 41°
2026-05-05 12:55 55.61129 12.62926 22 ft 26 kts 41°
2026-05-05 12:55 55.61270 12.63145 23 ft 28 kts 41°
2026-05-05 12:55 55.61419 12.63375 22 ft 29 kts 41°
2026-05-05 12:56 55.61574 12.63615 23 ft 30 kts 41°
2026-05-05 12:56 55.61736 12.63865 23 ft 32 kts 41°
2026-05-05 12:56 55.61859 12.64055 24 ft 22 kts 39°
2026-05-05 12:56 55.61998 12.64179 22 ft 23 kts 24°
2026-05-05 12:57 55.62145 12.64303 22 ft 18 kts 25°
2026-05-05 12:57 55.62264 12.64392 21 ft 20 kts 13°
2026-05-05 12:57 55.62400 12.64457 22 ft 20 kts 15°
2026-05-05 12:57 55.62507 12.64447 22 ft 16 kts 305°
2026-05-05 12:58 55.62573 12.64270 22 ft 18 kts 303°
2026-05-05 12:58 55.62644 12.64078 23 ft 19 kts 303°
2026-05-05 12:58 55.62699 12.63927 22 ft 11 kts 312°
2026-05-05 12:58 55.62771 12.63956 24 ft 12 kts 33°
2026-05-05 12:59 55.62821 12.64040 22 ft 9 kts 63°
2026-05-05 12:59 55.62837 12.64138 22 ft 7 kts 99°
2026-05-05 12:59 55.62820 12.64194 23 ft 1 kts 122°
2026-05-05 13:00 55.62814 12.64211 22 ft 0 kts 122°
2026-05-05 13:44 55.62817 12.64201 22 ft 4 kts 123°
2026-05-05 13:44 55.62831 12.64161 24 ft 4 kts 116°
2026-05-05 13:44 55.62838 12.64119 25 ft 4 kts 79°
2026-05-05 13:45 55.62832 12.64081 24 ft 4 kts 66°
2026-05-05 13:45 55.62823 12.64044 23 ft 2 kts 69°
2026-05-05 13:45 55.62819 12.64002 24 ft 4 kts 98°
2026-05-05 13:45 55.62820 12.63987 25 ft 4 kts 104°
2026-05-05 13:46 55.62825 12.63952 23 ft 2 kts 103°
2026-05-05 13:46 55.62831 12.63908 22 ft 4 kts 103°
2026-05-05 13:46 55.62836 12.63874 26 ft 0 kts 103°
2026-05-05 13:48 55.62835 12.63882 26 ft 7 kts 103°
2026-05-05 13:48 55.62767 12.63949 22 ft 14 kts 207°
2026-05-05 13:48 55.62675 12.63859 22 ft 16 kts 170°
2026-05-05 13:49 55.62596 12.64003 22 ft 18 kts 123°
2026-05-05 13:49 55.62525 12.64190 22 ft 19 kts 123°
2026-05-05 13:49 55.62446 12.64386 22 ft 20 kts 133°
2026-05-05 13:49 55.62312 12.64410 22 ft 21 kts 191°
2026-05-05 13:50 55.62160 12.64420 22 ft 23 kts 171°
2026-05-05 13:50 55.62000 12.64466 22 ft 24 kts 170°
2026-05-05 13:50 55.61831 12.64530 23 ft 25 kts 168°
2026-05-05 13:50 55.61653 12.64536 22 ft 27 kts 207°
2026-05-05 13:51 55.61494 12.64360 22 ft 28 kts 213°
2026-05-05 13:51 55.61328 12.64169 22 ft 29 kts 213°
2026-05-05 13:51 55.61281 12.64118 22 ft 6 kts 205°
2026-05-05 13:51 55.61235 12.64063 22 ft 10 kts 214°
2026-05-05 13:52 55.61160 12.63975 22 ft 16 kts 212°
2026-05-05 13:52 55.61054 12.63853 22 ft 21 kts 213°
2026-05-05 13:52 55.60928 12.63706 22 ft 23 kts 213°
2026-05-05 13:52 55.60783 12.63608 22 ft 24 kts 149°
2026-05-05 13:53 55.60693 12.63766 23 ft 13 kts 131°
2026-05-05 13:53 55.60700 12.63912 24 ft 16 kts 40°
2026-05-05 13:53 55.60934 12.64270 23 ft 81 kts 40°
2026-05-05 13:53 55.61548 12.65218 25 ft 149 kts 40°
2026-05-05 13:54 55.62346 12.66452 607 ft 153 kts 40°
2026-05-05 13:54 55.63134 12.67751 1320 ft 160 kts 40°
2026-05-05 13:54 55.64029 12.69118 1759 ft 179 kts 38°
2026-05-05 13:54 55.65014 12.70627 2273 ft 196 kts 39°
2026-05-05 13:55 55.65918 12.72610 2668 ft 226 kts 64°
2026-05-05 13:55 55.66085 12.75525 3148 ft 255 kts 99°
2026-05-05 13:55 55.65232 12.78348 3927 ft 269 kts 134°
2026-05-05 13:55 55.63623 12.80030 4771 ft 275 kts 166°
2026-05-05 13:56 55.61724 12.80048 5665 ft 275 kts 193°
2026-05-05 13:56 55.59864 12.79268 6622 ft 275 kts 194°
2026-05-05 13:56 55.57986 12.78606 7516 ft 276 kts 192°
2026-05-05 13:56 55.56097 12.78107 8393 ft 278 kts 191°
2026-05-05 13:57 55.54167 12.77708 9278 ft 281 kts 190°
2026-05-05 13:57 55.52254 12.77046 10068 ft 280 kts 203°
2026-05-05 13:57 55.50543 12.75297 10411 ft 292 kts 225°
2026-05-05 13:57 55.49154 12.72554 10710 ft 310 kts 233°
2026-05-05 13:58 55.47764 12.69470 10968 ft 330 kts 233°
2026-05-05 13:58 55.46282 12.66235 11215 ft 349 kts 232°
2026-05-05 13:58 55.44701 12.62855 11587 ft 362 kts 232°
2026-05-05 13:58 55.43077 12.59426 12196 ft 367 kts 232°
2026-05-05 13:59 55.39764 12.52501 13500 ft 372 kts 232°
2026-05-05 13:59 55.38112 12.49057 14083 ft 374 kts 232°
2026-05-05 14:00 55.34725 12.42004 15210 ft 379 kts 232°
2026-05-05 14:00 55.33591 12.39650 15599 ft 381 kts 232°
2026-05-05 14:00 55.31865 12.36073 16213 ft 384 kts 232°
2026-05-05 14:00 55.30130 12.32485 16828 ft 387 kts 231°
2026-05-05 14:01 55.27804 12.27680 17633 ft 391 kts 231°
2026-05-05 14:01 55.26032 12.24030 18216 ft 395 kts 231°
2026-05-05 14:01 55.24828 12.21555 18561 ft 397 kts 231°
2026-05-05 14:01 55.23030 12.17860 19078 ft 399 kts 231°
2026-05-05 14:02 55.21213 12.14170 19602 ft 402 kts 230°
2026-05-05 14:02 55.19165 12.10795 20082 ft 407 kts 221°
2026-05-05 14:02 55.16887 12.07792 20504 ft 412 kts 219°
2026-05-05 14:02 55.14554 12.04843 20929 ft 416 kts 218°
2026-05-05 14:03 55.12225 12.01905 21366 ft 419 kts 218°
2026-05-05 14:03 55.09850 11.98909 21813 ft 422 kts 219°
2026-05-05 14:03 55.07462 11.95887 22270 ft 425 kts 219°
2026-05-05 14:03 55.05066 11.92844 22722 ft 428 kts 219°
2026-05-05 14:04 55.02650 11.89771 23182 ft 431 kts 219°
2026-05-05 14:04 55.00215 11.86684 23602 ft 434 kts 219°
2026-05-05 14:04 54.97762 11.83581 23992 ft 437 kts 219°
2026-05-05 14:04 54.95296 11.80460 24377 ft 439 kts 219°
2026-05-05 14:05 54.92813 11.77325 24699 ft 442 kts 218°
2026-05-05 14:05 54.90340 11.74203 25047 ft 445 kts 218°
2026-05-05 14:05 54.87837 11.71058 25514 ft 444 kts 218°
2026-05-05 14:05 54.85331 11.67907 26003 ft 443 kts 218°
2026-05-05 14:06 54.82837 11.64773 26484 ft 442 kts 218°
2026-05-05 14:06 54.80349 11.61652 26965 ft 441 kts 218°
2026-05-05 14:06 54.77865 11.58543 27452 ft 439 kts 218°
2026-05-05 14:06 54.75416 11.55491 27920 ft 438 kts 218°
2026-05-05 14:07 54.72951 11.52409 28380 ft 437 kts 218°
2026-05-05 14:07 54.70479 11.49334 28874 ft 434 kts 218°
2026-05-05 14:07 54.68031 11.46302 29459 ft 431 kts 218°
2026-05-05 14:07 54.65607 11.43297 29953 ft 429 kts 218°
2026-05-05 14:08 54.63187 11.40296 30339 ft 427 kts 218°
2026-05-05 14:08 54.60772 11.37306 30689 ft 426 kts 218°
2026-05-05 14:08 54.58367 11.34328 31004 ft 426 kts 218°
2026-05-05 14:08 54.55949 11.31335 31226 ft 428 kts 218°
2026-05-05 14:09 54.53517 11.28351 31511 ft 429 kts 218°
2026-05-05 14:09 54.51086 11.25394 31831 ft 428 kts 217°
2026-05-05 14:09 54.48651 11.22441 32129 ft 427 kts 217°
2026-05-05 14:09 54.46221 11.19500 32548 ft 423 kts 218°
2026-05-05 14:10 54.43832 11.16599 32963 ft 419 kts 218°
2026-05-05 14:10 54.41486 11.13750 33302 ft 417 kts 218°
2026-05-05 14:10 54.39111 11.10882 33605 ft 416 kts 218°
2026-05-05 14:10 54.36745 11.08019 33881 ft 416 kts 218°
2026-05-05 14:11 54.34378 11.05161 34106 ft 415 kts 218°
2026-05-05 14:11 54.32009 11.02328 34294 ft 416 kts 217°
2026-05-05 14:11 54.29470 10.99886 34464 ft 420 kts 207°
2026-05-05 14:11 54.26749 10.98038 34648 ft 422 kts 204°
2026-05-05 14:12 54.23983 10.96324 34833 ft 422 kts 204°
2026-05-05 14:12 54.21226 10.94629 35075 ft 420 kts 204°
2026-05-05 14:12 54.18487 10.92929 35285 ft 419 kts 204°
2026-05-05 14:12 54.15748 10.91217 35456 ft 419 kts 204°
2026-05-05 14:13 54.13012 10.89499 35608 ft 419 kts 204°
2026-05-05 14:13 54.10304 10.87803 35779 ft 419 kts 204°
2026-05-05 14:13 54.07567 10.86096 35921 ft 420 kts 204°
2026-05-05 14:13 54.04817 10.84382 35954 ft 420 kts 204°
2026-05-05 14:14 53.99318 10.80967 35932 ft 419 kts 204°
2026-05-05 14:14 53.93854 10.77577 35936 ft 417 kts 205°
2026-05-05 14:15 53.88409 10.74202 35937 ft 417 kts 204°
2026-05-05 14:15 53.82963 10.70836 35936 ft 416 kts 204°
2026-05-05 14:16 53.77548 10.67492 35936 ft 417 kts 204°
2026-05-05 14:16 53.72129 10.64167 35928 ft 411 kts 204°
2026-05-05 14:17 53.66752 10.60873 35929 ft 410 kts 204°
2026-05-05 14:17 53.61383 10.57586 35932 ft 411 kts 204°
2026-05-05 14:18 53.56004 10.54306 35927 ft 410 kts 204°
2026-05-05 14:18 53.50658 10.51060 35912 ft 411 kts 204°
2026-05-05 14:19 53.45264 10.47788 35911 ft 411 kts 204°
2026-05-05 14:19 53.39881 10.44530 35912 ft 411 kts 204°
2026-05-05 14:20 53.34487 10.41275 35908 ft 411 kts 204°
2026-05-05 14:20 53.29133 10.38058 35901 ft 412 kts 204°
2026-05-05 14:21 53.23705 10.34801 35909 ft 416 kts 204°
2026-05-05 14:21 53.18225 10.31526 35907 ft 416 kts 204°
2026-05-05 14:22 53.12796 10.28286 35904 ft 416 kts 204°
2026-05-05 14:22 53.07331 10.25034 35906 ft 416 kts 204°
2026-05-05 14:23 53.01879 10.21799 35904 ft 416 kts 204°
2026-05-05 14:23 52.96455 10.18583 35907 ft 416 kts 204°
2026-05-05 14:24 52.90956 10.15339 35913 ft 416 kts 204°
2026-05-05 14:24 52.85502 10.12128 35911 ft 416 kts 204°
2026-05-05 14:25 52.80087 10.08947 35888 ft 415 kts 203°
2026-05-05 14:25 52.74626 10.05751 35896 ft 416 kts 203°
2026-05-05 14:26 52.69167 10.02564 35905 ft 416 kts 203°
2026-05-05 14:26 52.63701 9.99379 35906 ft 416 kts 203°
2026-05-05 14:27 52.58234 9.96205 35892 ft 416 kts 203°
2026-05-05 14:27 52.52779 9.93046 35911 ft 415 kts 203°
2026-05-05 14:28 52.47365 9.89915 35889 ft 415 kts 203°
2026-05-05 14:28 52.41912 9.86770 35880 ft 415 kts 202°
2026-05-05 14:29 52.36458 9.83638 35876 ft 415 kts 202°
2026-05-05 14:29 52.31022 9.80523 35888 ft 411 kts 202°
2026-05-05 14:30 52.25634 9.77442 35877 ft 410 kts 202°
2026-05-05 14:30 52.20247 9.74369 35887 ft 410 kts 202°
2026-05-05 14:31 52.14885 9.71320 35880 ft 411 kts 202°
2026-05-05 14:31 52.09484 9.68255 35865 ft 409 kts 202°
2026-05-05 14:32 52.04124 9.65224 35861 ft 408 kts 202°
2026-05-05 14:32 51.98751 9.62191 35862 ft 408 kts 202°
2026-05-05 14:33 51.93388 9.59172 35863 ft 408 kts 202°
2026-05-05 14:33 51.88052 9.56174 35843 ft 408 kts 202°
2026-05-05 14:34 51.82664 9.53284 35847 ft 409 kts 197°
2026-05-05 14:34 51.77048 9.51491 35834 ft 411 kts 194°
2026-05-05 14:35 51.71418 9.49832 35836 ft 411 kts 194°
2026-05-05 14:35 51.65788 9.48152 35824 ft 411 kts 193°
2026-05-05 14:36 51.60190 9.46482 35820 ft 408 kts 193°
2026-05-05 14:36 51.54613 9.44816 35822 ft 407 kts 193°
2026-05-05 14:37 51.49074 9.43166 35828 ft 408 kts 193°
2026-05-05 14:37 51.43482 9.41507 35821 ft 408 kts 193°
2026-05-05 14:38 51.37918 9.39857 35817 ft 406 kts 193°
2026-05-05 14:38 51.32347 9.38212 35814 ft 406 kts 193°
2026-05-05 14:39 51.26805 9.36579 35799 ft 406 kts 193°
2026-05-05 14:39 51.21239 9.34941 35790 ft 407 kts 193°
2026-05-05 14:40 51.15673 9.33309 35790 ft 407 kts 192°
2026-05-05 14:40 51.10100 9.31679 35797 ft 407 kts 192°
2026-05-05 14:41 51.04534 9.30054 35797 ft 407 kts 192°
2026-05-05 14:41 50.98960 9.28432 35800 ft 407 kts 192°
2026-05-05 14:42 50.93388 9.26814 35799 ft 407 kts 192°
2026-05-05 14:42 50.87801 9.25194 35799 ft 408 kts 192°
2026-05-05 14:43 50.82211 9.23579 35795 ft 408 kts 192°
2026-05-05 14:43 50.77576 9.22243 35801 ft 408 kts 192°
2026-05-05 14:44 50.71984 9.20649 35791 ft 408 kts 191°
2026-05-05 14:44 50.66354 9.19432 35793 ft 407 kts 189°
2026-05-05 14:45 50.60728 9.18270 35798 ft 407 kts 189°
2026-05-05 14:45 50.55111 9.17105 35800 ft 407 kts 189°
2026-05-05 14:46 50.49515 9.15949 35425 ft 404 kts 188°
2026-05-05 14:46 50.46726 9.15375 35155 ft 404 kts 188°
2026-05-05 14:46 50.43938 9.14801 34898 ft 403 kts 188°
2026-05-05 14:47 50.41156 9.14227 34656 ft 403 kts 188°
2026-05-05 14:47 50.38367 9.13652 34418 ft 403 kts 188°
2026-05-05 14:47 50.35597 9.13084 34180 ft 402 kts 188°
2026-05-05 14:47 50.32822 9.12514 33951 ft 402 kts 188°
2026-05-05 14:48 50.30049 9.11945 33785 ft 401 kts 188°
2026-05-05 14:48 50.27277 9.11377 33770 ft 403 kts 187°
2026-05-05 14:48 50.21694 9.10242 33806 ft 405 kts 187°
2026-05-05 14:49 50.16102 9.09098 33809 ft 405 kts 187°
2026-05-05 14:49 50.10491 9.07955 33811 ft 405 kts 187°
2026-05-05 14:50 50.04867 9.06811 33812 ft 406 kts 187°